| time (UTC) | temp F | wind direction | speed knots | gust knots | rain 1hr in | rain 24hr in | rain mn in | humidity % | barometer mb |
| 20260508010520 | 53 | 62 | 0.0 | 0.0 | 0.00 | 0.38 | 0.38 | 95 | 1011.8 |
| 20260508010017 | 53 | 77 | 0.0 | 0.9 | 0.00 | 0.38 | 0.38 | 95 | 1011.7 |
| 20260508005514 | 53 | 16 | 0.0 | 0.9 | 0.00 | 0.38 | 0.38 | 95 | 1011.5 |
| 20260508005011 | 54 | 139 | 0.0 | 0.9 | 0.00 | 0.38 | 0.38 | 95 | 1011.4 |
| 20260508004507 | 54 | 290 | 0.0 | 1.7 | 0.00 | 0.38 | 0.38 | 95 | 1011.3 |
| 20260508004004 | 54 | 356 | 0.0 | 0.0 | 0.00 | 0.38 | 0.38 | 95 | 1011.5 |
| 20260508003500 | 53 | 47 | 1.7 | 2.6 | 0.00 | 0.38 | 0.38 | 95 | 1011.5 |
| 20260508002958 | 54 | 33 | 0.9 | 1.7 | 0.00 | 0.38 | 0.38 | 95 | 1011.5 |
| 20260508002453 | 54 | 35 | 0.9 | 2.6 | 0.00 | 0.38 | 0.38 | 95 | 1011.5 |
| 20260508001950 | 54 | 220 | 0.0 | 0.9 | 0.00 | 0.38 | 0.38 | 95 | 1011.8 |
| 20260508001446 | 54 | 267 | 0.0 | 0.0 | 0.00 | 0.38 | 0.38 | 95 | 1011.7 |
| 20260508000942 | 54 | 305 | 0.0 | 0.0 | 0.00 | 0.38 | 0.38 | 95 | 1011.8 |
| 20260508000438 | 54 | 165 | 0.0 | 1.7 | 0.00 | 0.38 | 0.38 | 95 | 1011.7 |
| 20260507235936 | 54 | 242 | 0.0 | 0.0 | 0.00 | 0.38 | 0.38 | 94 | 1011.3 |
| 20260507235432 | 54 | 145 | 0.0 | 0.9 | 0.00 | 0.38 | 0.38 | 94 | 1011.2 |
| 20260507234930 | 54 | 273 | 1.7 | 2.6 | 0.00 | 0.38 | 0.38 | 94 | 1011.1 |
| 20260507234426 | 54 | 37 | 0.0 | 1.7 | 0.00 | 0.38 | 0.38 | 93 | 1010.9 |
| 20260507233923 | 54 | 279 | 0.0 | 0.9 | 0.00 | 0.38 | 0.38 | 93 | 1010.8 |
| 20260507233420 | 54 | 5 | 2.6 | 3.5 | 0.00 | 0.38 | 0.38 | 93 | 1010.3 |
| 20260507232919 | 54 | 41 | 1.7 | 1.7 | 0.00 | 0.38 | 0.38 | 93 | 1010.3 |
| 20260507232414 | 54 | 46 | 2.6 | 2.6 | 0.00 | 0.38 | 0.38 | 93 | 1010.4 |
| 20260507231912 | 54 | 46 | 2.6 | 2.6 | 0.00 | 0.38 | 0.38 | 93 | 1010.4 |
| 20260507231408 | 54 | 36 | 2.6 | 4.3 | 0.00 | 0.38 | 0.38 | 93 | 1010.6 |
| 20260507230904 | 54 | 25 | 1.7 | 1.7 | 0.00 | 0.38 | 0.38 | 93 | 1010.6 |
| 20260507230402 | 54 | 332 | 0.0 | 3.5 | 0.00 | 0.38 | 0.38 | 93 | 1010.6 |
| 20260507225902 | 54 | 29 | 1.7 | 3.5 | 0.00 | 0.38 | 0.38 | 93 | 1010.5 |
| 20260507225359 | 54 | 264 | 1.7 | 3.5 | 0.00 | 0.38 | 0.38 | 93 | 1010.3 |
| 20260507224855 | 54 | 353 | 4.3 | 4.3 | 0.00 | 0.38 | 0.38 | 93 | 1010.4 |
| 20260507224351 | 54 | 349 | 1.7 | 4.3 | 0.00 | 0.38 | 0.38 | 93 | 1010.5 |
| 20260507223847 | 54 | 6 | 1.7 | 1.7 | 0.00 | 0.38 | 0.38 | 93 | 1010.6 |
| 20260507223344 | 54 | 287 | 0.0 | 2.6 | 0.00 | 0.38 | 0.38 | 93 | 1010.5 |
| 20260507222841 | 54 | 237 | 0.0 | 1.7 | 0.00 | 0.38 | 0.38 | 93 | 1010.8 |
| 20260507222337 | 54 | 295 | 1.7 | 2.6 | 0.00 | 0.38 | 0.38 | 93 | 1010.8 |
| 20260507221834 | 54 | 45 | 0.9 | 1.7 | 0.00 | 0.38 | 0.38 | 93 | 1010.9 |
| 20260507221331 | 54 | 287 | 0.9 | 1.7 | 0.00 | 0.38 | 0.38 | 93 | 1010.6 |
| 20260507220827 | 54 | 201 | 1.7 | 3.5 | 0.00 | 0.38 | 0.38 | 93 | 1010.6 |
| 20260507220325 | 54 | 24 | 1.7 | 1.7 | 0.00 | 0.38 | 0.38 | 93 | 1010.4 |
| 20260507215821 | 54 | 350 | 1.7 | 2.6 | 0.00 | 0.38 | 0.38 | 92 | 1010.7 |
| 20260507215319 | 54 | 50 | 0.0 | 2.6 | 0.00 | 0.38 | 0.38 | 92 | 1010.9 |
| 20260507214816 | 54 | 77 | 0.0 | 3.5 | 0.00 | 0.38 | 0.38 | 92 | 1010.5 |
| 20260507214314 | 54 | 24 | 1.7 | 5.2 | 0.00 | 0.38 | 0.38 | 92 | 1010.5 |
| 20260507213814 | 54 | 286 | 0.0 | 3.5 | 0.00 | 0.38 | 0.38 | 92 | 1010.5 |
| 20260507213311 | 54 | 320 | 0.0 | 2.6 | 0.00 | 0.38 | 0.38 | 92 | 1010.4 |
| 20260507212808 | 54 | 326 | 1.7 | 5.2 | 0.00 | 0.38 | 0.38 | 92 | 1010.4 |
| 20260507212307 | 54 | 243 | 0.9 | 3.5 | 0.00 | 0.38 | 0.38 | 93 | 1010.4 |
| 20260507211800 | 54 | 339 | 3.5 | 7.0 | 0.00 | 0.38 | 0.38 | 92 | 1010.3 |
| 20260507211257 | 54 | 16 | 0.0 | 7.8 | 0.00 | 0.38 | 0.38 | 92 | 1010.3 |
| 20260507210754 | 54 | 246 | 1.7 | 3.5 | 0.00 | 0.38 | 0.38 | 92 | 1010.4 |
| 20260507210251 | 54 | 2 | 0.0 | 4.3 | 0.00 | 0.38 | 0.38 | 92 | 1010.1 |
| 20260507205747 | 54 | 355 | 2.6 | 7.0 | 0.00 | 0.38 | 0.38 | 91 | 1010.3 |
| 20260507205244 | 54 | 302 | 0.9 | 3.5 | 0.00 | 0.38 | 0.38 | 91 | 1010.0 |
| 20260507204740 | 54 | 354 | 3.5 | 5.2 | 0.00 | 0.38 | 0.38 | 91 | 1010.1 |
| 20260507204238 | 54 | 312 | 1.7 | 2.6 | 0.00 | 0.38 | 0.38 | 91 | 1009.9 |
| 20260507203736 | 54 | 339 | 1.7 | 3.5 | 0.00 | 0.38 | 0.38 | 90 | 1010.0 |
| 20260507203233 | 54 | 311 | 1.7 | 3.5 | 0.00 | 0.38 | 0.38 | 91 | 1009.9 |
| 20260507202729 | 54 | 57 | 3.5 | 3.5 | 0.00 | 0.38 | 0.38 | 92 | 1010.2 |
| 20260507202226 | 55 | 246 | 2.6 | 2.6 | 0.00 | 0.38 | 0.38 | 93 | 1010.2 |
| 20260507201721 | 55 | 113 | 1.7 | 1.7 | 0.00 | 0.38 | 0.38 | 94 | 1010.0 |
| 20260507201218 | 55 | 284 | 1.7 | 8.7 | 0.00 | 0.38 | 0.38 | 93 | 1009.8 |
| 20260507200714 | 55 | 257 | 2.6 | 3.5 | 0.00 | 0.38 | 0.38 | 94 | 1009.9 |
| 20260507200210 | 54 | 296 | 0.0 | 7.8 | 0.00 | 0.38 | 0.38 | 93 | 1009.9 |
| 20260507195706 | 54 | 338 | 4.3 | 4.3 | 0.00 | 0.38 | 0.38 | 94 | 1009.8 |
| 20260507195204 | 54 | 272 | 1.7 | 4.3 | 0.02 | 0.38 | 0.38 | 93 | 1009.9 |
| 20260507194701 | 54 | 16 | 4.3 | 4.3 | 0.02 | 0.38 | 0.38 | 94 | 1010.1 |
| 20260507194156 | 54 | 285 | 1.7 | 3.5 | 0.00 | 0.37 | 0.37 | 95 | 1010.3 |
| 20260507193653 | 54 | 291 | 0.0 | 4.3 | 0.07 | 0.37 | 0.37 | 95 | 1010.4 |
| 20260507193150 | 54 | 31 | 0.9 | 3.5 | 0.19 | 0.37 | 0.37 | 95 | 1010.2 |
| 20260507192646 | 54 | 250 | 1.7 | 2.6 | 0.05 | 0.35 | 0.35 | 95 | 1010.0 |
| 20260507192144 | 55 | 232 | 1.7 | 1.7 | 0.00 | 0.34 | 0.34 | 95 | 1009.8 |
| 20260507191639 | 55 | 272 | 3.5 | 3.5 | 0.02 | 0.34 | 0.34 | 95 | 1009.5 |
| 20260507191136 | 55 | 272 | 3.5 | 3.5 | 0.05 | 0.34 | 0.34 | 95 | 1009.6 |
| 20260507190633 | 55 | 329 | 2.6 | 3.5 | 0.02 | 0.34 | 0.34 | 95 | 1009.4 |
| 20260507190132 | 55 | 320 | 2.6 | 5.2 | 0.00 | 0.34 | 0.34 | 95 | 1009.6 |
| 20260507185630 | 55 | 4 | 3.5 | 4.3 | 0.00 | 0.34 | 0.34 | 95 | 1009.7 |
| 20260507185126 | 55 | 8 | 1.7 | 2.6 | 0.00 | 0.34 | 0.34 | 95 | 1009.8 |
| 20260507184624 | 56 | 234 | 1.7 | 3.5 | 0.00 | 0.34 | 0.34 | 95 | 1009.6 |
| 20260507184122 | 56 | 281 | 0.9 | 3.5 | 0.00 | 0.34 | 0.34 | 95 | 1009.5 |
| 20260507183618 | 57 | 33 | 0.0 | 1.7 | 0.00 | 0.34 | 0.34 | 96 | 1009.2 |
| 20260507183115 | 57 | 233 | 3.5 | 5.2 | 0.00 | 0.34 | 0.34 | 95 | 1009.1 |
| 20260507182611 | 57 | 258 | 4.3 | 4.3 | 0.00 | 0.34 | 0.34 | 95 | 1009.2 |
| 20260507182107 | 57 | 356 | 1.7 | 2.6 | 0.00 | 0.34 | 0.34 | 95 | 1009.3 |
| 20260507181605 | 57 | 173 | 0.0 | 1.7 | 0.00 | 0.34 | 0.34 | 95 | 1009.4 |
| 20260507181101 | 57 | 46 | 0.9 | 1.7 | 0.02 | 0.34 | 0.34 | 96 | 1009.3 |
| 20260507180558 | 57 | 46 | 0.9 | 1.7 | 0.05 | 0.34 | 0.34 | 96 | 1009.1 |
| 20260507180054 | 57 | 254 | 1.7 | 1.7 | 0.07 | 0.33 | 0.33 | 95 | 1009.7 |
| 20260507175550 | 58 | 30 | 1.7 | 3.5 | 0.05 | 0.33 | 0.33 | 95 | 1010.1 |
| 20260507175048 | 58 | 30 | 1.7 | 3.5 | 0.00 | 0.32 | 0.32 | 95 | 1010.3 |
| 20260507174545 | 58 | 273 | 1.7 | 5.2 | 0.00 | 0.32 | 0.32 | 95 | 1010.0 |
| 20260507174043 | 58 | 230 | 0.9 | 1.7 | 0.00 | 0.32 | 0.32 | 95 | 1009.8 |
| 20260507173539 | 58 | 308 | 2.6 | 2.6 | 0.00 | 0.32 | 0.32 | 95 | 1009.8 |
| 20260507173037 | 59 | 325 | 1.7 | 4.3 | 0.00 | 0.32 | 0.32 | 96 | 1009.1 |
| 20260507172532 | 59 | 325 | 1.7 | 4.3 | 0.00 | 0.32 | 0.32 | 96 | 1008.8 |
| 20260507172029 | 59 | 325 | 1.7 | 4.3 | 0.02 | 0.32 | 0.32 | 96 | 1009.0 |
| 20260507171525 | 59 | 337 | 1.7 | 2.6 | 0.05 | 0.32 | 0.32 | 95 | 1008.7 |
| 20260507171023 | 59 | 321 | 2.6 | 3.5 | 0.05 | 0.31 | 0.31 | 95 | 1008.6 |
| 20260507170519 | 60 | 355 | 2.6 | 2.6 | 0.00 | 0.30 | 0.30 | 95 | 1009.3 |
| 20260507170016 | 60 | 355 | 2.6 | 2.6 | 0.02 | 0.30 | 0.30 | 95 | 1009.2 |
| 20260507165512 | 62 | 30 | 0.9 | 2.6 | 0.02 | 0.30 | 0.30 | 94 | 1009.3 |
| 20260507165008 | 62 | 30 | 0.9 | 2.6 | 0.00 | 0.30 | 0.30 | 94 | 1009.6 |
| 20260507164504 | 62 | 30 | 0.9 | 2.6 | 0.00 | 0.30 | 0.30 | 94 | 1009.7 |
| 20260507164001 | 63 | 275 | 2.6 | 3.5 | 0.02 | 0.30 | 0.30 | 93 | 1010.0 |
| 20260507163459 | 63 | 275 | 2.6 | 3.5 | 0.05 | 0.30 | 0.30 | 93 | 1010.1 |
| 20260507162956 | 67 | 286 | 5.2 | 6.1 | 0.02 | 0.29 | 0.29 | 96 | 1009.8 |
| 20260507162451 | 67 | 145 | 0.0 | 0.0 | 0.00 | 0.29 | 0.29 | 96 | 1009.7 |
| 20260507161948 | 67 | 145 | 0.0 | 0.0 | 0.05 | 0.29 | 0.29 | 96 | 1009.6 |
| 20260507161444 | 67 | 342 | 0.0 | 1.7 | 0.07 | 0.29 | 0.29 | 96 | 1009.7 |
| 20260507160941 | 68 | 233 | 0.0 | 1.7 | 0.21 | 0.28 | 0.28 | 96 | 1009.9 |
| 20260507160437 | 68 | 233 | 0.0 | 1.7 | 0.26 | 0.27 | 0.27 | 96 | 1009.7 |
| 20260507155933 | 68 | 233 | 0.0 | 1.7 | 0.14 | 0.25 | 0.25 | 96 | 1009.6 |
| 20260507155429 | 68 | 233 | 0.0 | 1.7 | 0.07 | 0.23 | 0.23 | 96 | 1009.5 |
| 20260507154927 | 68 | 233 | 0.0 | 1.7 | 0.05 | 0.22 | 0.22 | 96 | 1009.3 |
| 20260507154423 | 68 | 233 | 0.0 | 1.7 | 0.02 | 0.22 | 0.22 | 96 | 1009.3 |
| 20260507153921 | 68 | 153 | 1.7 | 1.7 | 0.02 | 0.22 | 0.22 | 97 | 1009.6 |
| 20260507153417 | 68 | 153 | 1.7 | 1.7 | 0.00 | 0.21 | 0.21 | 97 | 1009.5 |
| 20260507152913 | 68 | 153 | 1.7 | 1.7 | 0.02 | 0.21 | 0.21 | 97 | 1009.4 |
| 20260507152410 | 68 | 142 | 0.0 | 3.5 | 0.02 | 0.21 | 0.21 | 96 | 1009.4 |
| 20260507151906 | 68 | 184 | 1.7 | 2.6 | 0.05 | 0.20 | 0.20 | 96 | 1009.5 |
| 20260507151402 | 68 | 184 | 1.7 | 2.6 | 0.07 | 0.20 | 0.20 | 96 | 1009.8 |
| 20260507150859 | 68 | 184 | 1.7 | 2.6 | 0.09 | 0.20 | 0.20 | 96 | 1009.6 |
| 20260507150356 | 68 | 184 | 1.7 | 2.6 | 0.09 | 0.19 | 0.19 | 96 | 1009.9 |
| 20260507145852 | 68 | 184 | 1.7 | 2.6 | 0.09 | 0.18 | 0.18 | 96 | 1009.8 |
| 20260507145348 | 68 | 184 | 1.7 | 2.6 | 0.09 | 0.17 | 0.17 | 96 | 1009.8 |
| 20260507144846 | 68 | 184 | 1.7 | 2.6 | 0.09 | 0.17 | 0.17 | 96 | 1009.7 |
| 20260507144343 | 68 | 184 | 1.7 | 2.6 | 0.07 | 0.15 | 0.15 | 96 | 1009.8 |
| 20260507143839 | 68 | 184 | 1.7 | 2.6 | 0.05 | 0.15 | 0.15 | 96 | 1009.7 |
| 20260507143337 | 68 | 184 | 1.7 | 2.6 | 0.05 | 0.14 | 0.14 | 96 | 1009.8 |
| 20260507142833 | 68 | 177 | 2.6 | 2.6 | 0.02 | 0.14 | 0.14 | 96 | 1009.7 |
| 20260507142329 | 68 | 177 | 2.6 | 2.6 | 0.00 | 0.13 | 0.13 | 96 | 1009.8 |
| 20260507141826 | 68 | 133 | 1.7 | 2.6 | 0.02 | 0.13 | 0.13 | 96 | 1009.9 |
| 20260507141323 | 68 | 138 | 2.6 | 3.5 | 0.05 | 0.13 | 0.13 | 96 | 1009.9 |
| 20260507140819 | 68 | 138 | 2.6 | 2.6 | 0.02 | 0.13 | 0.13 | 96 | 1009.9 |
| 20260507140316 | 67 | 181 | 3.5 | 3.5 | 0.00 | 0.13 | 0.13 | 96 | 1009.9 |
| 20260507135814 | 67 | 181 | 3.5 | 3.5 | 0.00 | 0.13 | 0.13 | 96 | 1010.1 |
| 20260507135311 | 67 | 181 | 3.5 | 3.5 | 0.00 | 0.13 | 0.13 | 96 | 1010.3 |
| 20260507134808 | 67 | 181 | 3.5 | 3.5 | 0.00 | 0.13 | 0.13 | 96 | 1010.2 |
| 20260507134304 | 67 | 181 | 3.5 | 3.5 | 0.00 | 0.13 | 0.13 | 96 | 1009.9 |
| 20260507133759 | 67 | 181 | 3.5 | 3.5 | 0.00 | 0.13 | 0.13 | 96 | 1010.0 |
| 20260507133256 | 67 | 136 | 3.5 | 3.5 | 0.00 | 0.13 | 0.13 | 97 | 1010.0 |
| 20260507132754 | 67 | 136 | 3.5 | 3.5 | 0.00 | 0.13 | 0.13 | 97 | 1009.9 |
| 20260507132250 | 67 | 146 | 3.5 | 5.2 | 0.00 | 0.13 | 0.13 | 97 | 1010.0 |
| 20260507131747 | 67 | 170 | 1.7 | 4.3 | 0.02 | 0.13 | 0.13 | 97 | 1009.9 |
| 20260507131244 | 67 | 139 | 2.6 | 3.5 | 0.00 | 0.12 | 0.12 | 97 | 1010.1 |
| 20260507130741 | 66 | 176 | 3.5 | 3.5 | 0.00 | 0.12 | 0.12 | 97 | 1010.1 |
| 20260507130239 | 66 | 176 | 3.5 | 3.5 | 0.00 | 0.12 | 0.12 | 97 | 1010.1 |
| 20260507125737 | 66 | 176 | 3.5 | 3.5 | 0.00 | 0.12 | 0.12 | 97 | 1010.2 |
| 20260507125235 | 66 | 176 | 3.5 | 3.5 | 0.02 | 0.12 | 0.12 | 97 | 1010.2 |
| 20260507124731 | 66 | 176 | 3.5 | 3.5 | 0.02 | 0.12 | 0.12 | 97 | 1010.2 |
| 20260507124228 | 66 | 176 | 3.5 | 3.5 | 0.00 | 0.12 | 0.12 | 97 | 1010.3 |
| 20260507123726 | 66 | 176 | 3.5 | 3.5 | 0.00 | 0.12 | 0.12 | 97 | 1010.2 |
| 20260507123224 | 66 | 176 | 3.5 | 3.5 | 0.00 | 0.12 | 0.12 | 97 | 1010.1 |
| 20260507122718 | 66 | 176 | 3.5 | 3.5 | 0.00 | 0.12 | 0.12 | 97 | 1010.2 |
| 20260507122215 | 66 | 170 | 2.6 | 2.6 | 0.00 | 0.12 | 0.12 | 97 | 1010.4 |
| 20260507121710 | 66 | 170 | 2.6 | 2.6 | 0.00 | 0.12 | 0.12 | 97 | 1010.4 |
| 20260507121207 | 66 | 170 | 2.6 | 2.6 | 0.00 | 0.12 | 0.12 | 97 | 1010.5 |
| 20260507120703 | 66 | 170 | 2.6 | 2.6 | 0.00 | 0.12 | 0.12 | 97 | 1010.4 |
| 20260507120200 | 66 | 170 | 2.6 | 2.6 | 0.00 | 0.12 | 0.12 | 97 | 1010.1 |
| 20260507115656 | 66 | 170 | 2.6 | 2.6 | 0.00 | 0.12 | 0.12 | 97 | 1010.6 |
| 20260507115152 | 66 | 170 | 2.6 | 2.6 | 0.00 | 0.12 | 0.12 | 97 | 1010.8 |
| 20260507114648 | 66 | 170 | 2.6 | 2.6 | 0.00 | 0.12 | 0.12 | 97 | 1010.7 |
| 20260507114145 | 66 | 170 | 2.6 | 2.6 | 0.00 | 0.12 | 0.12 | 97 | 1010.7 |
| 20260507113643 | 66 | 170 | 2.6 | 2.6 | 0.00 | 0.12 | 0.12 | 97 | 1010.7 |
| 20260507113139 | 66 | 189 | 3.5 | 4.3 | 0.00 | 0.12 | 0.12 | 97 | 1010.7 |
| 20260507112637 | 66 | 190 | 1.7 | 4.3 | 0.00 | 0.12 | 0.12 | 97 | 1010.7 |
| 20260507112133 | 66 | 140 | 1.7 | 3.5 | 0.00 | 0.12 | 0.12 | 97 | 1010.7 |
| 20260507111631 | 66 | 159 | 1.7 | 2.6 | 0.00 | 0.12 | 0.12 | 97 | 1010.6 |
| 20260507111127 | 66 | 204 | 1.7 | 3.5 | 0.00 | 0.12 | 0.12 | 97 | 1010.6 |
| 20260507110624 | 66 | 126 | 2.6 | 4.3 | 0.00 | 0.12 | 0.12 | 97 | 1010.4 |
| 20260507110121 | 66 | 127 | 2.6 | 3.5 | 0.00 | 0.12 | 0.12 | 97 | 1010.4 |
| 20260507105617 | 66 | 158 | 2.6 | 4.3 | 0.00 | 0.12 | 0.12 | 97 | 1010.3 |
| 20260507105113 | 66 | 132 | 0.9 | 2.6 | 0.02 | 0.12 | 0.12 | 97 | 1010.4 |
| 20260507104611 | 66 | 152 | 1.7 | 4.3 | 0.02 | 0.12 | 0.12 | 97 | 1010.3 |
| 20260507104107 | 66 | 158 | 1.7 | 1.7 | 0.00 | 0.11 | 0.11 | 97 | 1010.2 |
| 20260507103603 | 66 | 147 | 2.6 | 2.6 | 0.00 | 0.11 | 0.11 | 97 | 1010.1 |
| 20260507103100 | 66 | 140 | 1.7 | 5.2 | 0.00 | 0.11 | 0.11 | 97 | 1010.0 |
| 20260507102557 | 66 | 167 | 0.9 | 1.7 | 0.00 | 0.11 | 0.11 | 97 | 1010.0 |
| 20260507102053 | 66 | 137 | 3.5 | 3.5 | 0.00 | 0.11 | 0.11 | 97 | 1010.1 |
| 20260507101548 | 66 | 154 | 0.9 | 2.6 | 0.00 | 0.11 | 0.11 | 97 | 1010.1 |
| 20260507101045 | 66 | 102 | 1.7 | 2.6 | 0.00 | 0.11 | 0.11 | 97 | 1010.2 |
| 20260507100542 | 66 | 157 | 1.7 | 2.6 | 0.00 | 0.11 | 0.11 | 97 | 1010.2 |
| 20260507100040 | 66 | 126 | 0.9 | 2.6 | 0.00 | 0.11 | 0.11 | 97 | 1010.2 |
| 20260507095538 | 66 | 143 | 2.6 | 2.6 | 0.00 | 0.11 | 0.11 | 97 | 1010.3 |
| 20260507095034 | 66 | 132 | 1.7 | 3.5 | 0.00 | 0.11 | 0.11 | 97 | 1010.4 |
| 20260507094531 | 66 | 147 | 2.6 | 3.5 | 0.00 | 0.11 | 0.11 | 97 | 1010.2 |
| 20260507094028 | 66 | 142 | 1.7 | 3.5 | 0.00 | 0.11 | 0.11 | 97 | 1010.1 |
| 20260507093525 | 66 | 121 | 0.9 | 2.6 | 0.00 | 0.11 | 0.11 | 97 | 1010.2 |
| 20260507093024 | 66 | 149 | 1.7 | 2.6 | 0.00 | 0.11 | 0.11 | 97 | 1010.2 |
| 20260507092520 | 66 | 128 | 0.9 | 2.6 | 0.00 | 0.11 | 0.11 | 97 | 1010.2 |
| 20260507092017 | 65 | 95 | 0.9 | 1.7 | 0.00 | 0.11 | 0.11 | 97 | 1010.3 |
| 20260507091513 | 65 | 139 | 1.7 | 2.6 | 0.00 | 0.11 | 0.11 | 97 | 1010.4 |
| 20260507091009 | 65 | 140 | 1.7 | 1.7 | 0.00 | 0.11 | 0.11 | 97 | 1010.3 |
| 20260507090505 | 65 | 117 | 0.9 | 1.7 | 0.00 | 0.11 | 0.11 | 97 | 1010.3 |
| 20260507090002 | 65 | 152 | 3.5 | 3.5 | 0.02 | 0.11 | 0.11 | 97 | 1010.4 |
| 20260507085459 | 65 | 144 | 2.6 | 3.5 | 0.02 | 0.11 | 0.11 | 97 | 1010.5 |
| 20260507084956 | 65 | 108 | 1.7 | 1.7 | 0.00 | 0.11 | 0.11 | 97 | 1010.2 |
| 20260507084453 | 65 | 106 | 0.9 | 1.7 | 0.00 | 0.11 | 0.11 | 97 | 1010.4 |
| 20260507083950 | 65 | 91 | 1.7 | 2.6 | 0.00 | 0.11 | 0.11 | 97 | 1010.8 |
| 20260507083446 | 65 | 125 | 1.7 | 2.6 | 0.02 | 0.11 | 0.11 | 97 | 1010.9 |
| 20260507082943 | 65 | 149 | 0.9 | 2.6 | 0.02 | 0.11 | 0.11 | 97 | 1011.1 |
| 20260507082439 | 65 | 138 | 1.7 | 2.6 | 0.00 | 0.11 | 0.11 | 97 | 1011.0 |
| 20260507081935 | 65 | 248 | 0.0 | 0.9 | 0.00 | 0.11 | 0.11 | 97 | 1010.8 |
| 20260507081432 | 65 | 248 | 0.0 | 0.9 | 0.00 | 0.11 | 0.11 | 97 | 1010.7 |
| 20260507080929 | 65 | 248 | 0.0 | 0.9 | 0.00 | 0.11 | 0.11 | 97 | 1010.7 |
| 20260507080425 | 65 | 6 | 0.0 | 0.9 | 0.00 | 0.11 | 0.11 | 97 | 1010.7 |
| 20260507075920 | 65 | 50 | 0.9 | 0.9 | 0.00 | 0.11 | 0.11 | 97 | 1010.9 |
| 20260507075416 | 65 | 165 | 1.7 | 1.7 | 0.00 | 0.11 | 0.11 | 96 | 1011.2 |
| 20260507074913 | 65 | 165 | 1.7 | 1.7 | 0.00 | 0.11 | 0.11 | 96 | 1011.3 |
| 20260507074410 | 65 | 165 | 1.7 | 1.7 | 0.00 | 0.11 | 0.11 | 96 | 1011.3 |
| 20260507073908 | 65 | 160 | 0.0 | 0.9 | 0.00 | 0.11 | 0.11 | 96 | 1011.1 |
| 20260507073404 | 65 | 151 | 0.0 | 0.0 | 0.00 | 0.11 | 0.11 | 96 | 1011.3 |
| 20260507072901 | 65 | 165 | 1.7 | 1.7 | 0.00 | 0.11 | 0.11 | 96 | 1011.4 |
| 20260507072359 | 65 | 127 | 1.7 | 1.7 | 0.00 | 0.11 | 0.11 | 96 | 1011.1 |
| 20260507071856 | 65 | 157 | 0.0 | 0.0 | 0.00 | 0.11 | 0.11 | 96 | 1011.0 |
| 20260507071353 | 65 | 188 | 1.7 | 1.7 | 0.00 | 0.11 | 0.11 | 96 | 1011.2 |
| 20260507070849 | 65 | 288 | 0.9 | 0.9 | 0.00 | 0.11 | 0.11 | 96 | 1011.0 |
| 20260507070347 | 65 | 72 | 0.9 | 1.7 | 0.00 | 0.11 | 0.11 | 96 | 1010.8 |
| 20260507065843 | 65 | 129 | 1.7 | 1.7 | 0.00 | 0.11 | 0.11 | 96 | 1011.3 |
| 20260507065340 | 65 | 146 | 0.0 | 1.7 | 0.00 | 0.11 | 0.11 | 96 | 1011.6 |
| 20260507064837 | 65 | 122 | 1.7 | 1.7 | 0.00 | 0.11 | 0.11 | 96 | 1011.8 |
| 20260507064336 | 65 | 135 | 1.7 | 2.6 | 0.00 | 0.11 | 0.11 | 96 | 1011.9 |
| 20260507063833 | 65 | 134 | 1.7 | 1.7 | 0.00 | 0.11 | 0.11 | 96 | 1012.0 |
| 20260507063330 | 65 | 152 | 2.6 | 3.5 | 0.00 | 0.11 | 0.11 | 96 | 1011.9 |
| 20260507062826 | 65 | 144 | 1.7 | 2.6 | 0.00 | 0.11 | 0.11 | 95 | 1011.7 |
| 20260507062323 | 65 | 117 | 0.9 | 1.7 | 0.00 | 0.11 | 0.11 | 95 | 1011.6 |
| 20260507061822 | 65 | 145 | 2.6 | 2.6 | 0.00 | 0.11 | 0.11 | 95 | 1012.1 |
| 20260507061319 | 65 | 132 | 2.6 | 2.6 | 0.00 | 0.11 | 0.11 | 95 | 1012.2 |
| 20260507060818 | 66 | 139 | 2.6 | 3.5 | 0.00 | 0.11 | 0.11 | 95 | 1012.1 |
| 20260507060314 | 66 | 139 | 0.9 | 1.7 | 0.00 | 0.11 | 0.11 | 95 | 1012.2 |
| 20260507055811 | 66 | 102 | 0.9 | 1.7 | 0.02 | 0.11 | 0.11 | 95 | 1011.8 |
| 20260507055306 | 66 | 220 | 0.0 | 1.7 | 0.02 | 0.11 | 0.11 | 95 | 1011.9 |
| 20260507054802 | 66 | 164 | 0.9 | 3.5 | 0.07 | 0.10 | 0.10 | 94 | 1012.0 |
| 20260507054259 | 66 | 141 | 0.9 | 1.7 | 0.14 | 0.10 | 0.10 | 94 | 1011.2 |
| 20260507053756 | 66 | 72 | 2.6 | 2.6 | 0.19 | 0.09 | 0.09 | 94 | 1011.6 |
| 20260507053254 | 66 | 114 | 2.6 | 3.5 | 0.12 | 0.07 | 0.07 | 94 | 1012.0 |
| 20260507052753 | 66 | 120 | 1.7 | 3.5 | 0.02 | 0.06 | 0.06 | 93 | 1012.4 |
| 20260507052248 | 66 | 149 | 5.2 | 5.2 | 0.02 | 0.06 | 0.06 | 93 | 1012.4 |
| 20260507051747 | 67 | 145 | 2.6 | 5.2 | 0.02 | 0.05 | 0.05 | 92 | 1011.9 |
| 20260507051243 | 67 | 123 | 2.6 | 4.3 | 0.09 | 0.05 | 0.05 | 92 | 1011.5 |
| 20260507050740 | 68 | 123 | 1.7 | 5.2 | 0.09 | 0.04 | 0.04 | 90 | 1011.2 |
| 20260507050237 | 68 | 123 | 1.7 | 5.2 | 0.07 | 0.03 | 0.03 | 90 | 1011.9 |
| 20260507045734 | 68 | 130 | 5.2 | 11.3 | 0.09 | 0.03 | 0.03 | 89 | 1012.6 |
| 20260507045230 | 68 | 131 | 3.5 | 10.4 | 0.07 | 0.02 | 0.02 | 88 | 1012.9 |
| 20260507044727 | 68 | 154 | 2.6 | 4.3 | 0.02 | 0.01 | 0.01 | 87 | 1013.2 |
| 20260507044224 | 68 | 123 | 2.6 | 3.5 | 0.00 | 0.01 | 0.01 | 87 | 1013.2 |
| 20260507043720 | 68 | 123 | 2.6 | 3.5 | 0.00 | 0.01 | 0.01 | 87 | 1013.3 |
| 20260507043217 | 68 | 87 | 0.9 | 2.6 | 0.00 | 0.01 | 0.01 | 87 | 1013.8 |
| 20260507042714 | 68 | 167 | 1.7 | 1.7 | 0.02 | 0.01 | 0.01 | 87 | 1013.1 |
| 20260507042214 | 68 | 149 | 0.9 | 1.7 | 0.02 | 0.01 | 0.01 | 86 | 1013.3 |
| 20260507041712 | 69 | 132 | 0.9 | 2.6 | 0.00 | 0.00 | 0.00 | 84 | 1013.3 |
| 20260507041208 | 0 | 0.0 | 0.0 | 0.02 | 0.00 | 0.00 | 1013.0 | ||
| 20260507040705 | 0 | 0.0 | 0.0 | 0.00 | 0.00 | 0.00 | 1012.6 | ||
| 20260507040201 | 0 | 0.0 | 0.0 | 0.00 | 0.00 | 0.00 | 1012.6 | ||
| 20260507035657 | 0 | 0.0 | 0.0 | 0.00 | 0.08 | 0.08 | 1012.3 | ||
| 20260507035153 | 73 | 153 | 0.0 | 0.0 | 0.00 | 0.08 | 0.08 | 61 | 1012.4 |
| 20260507034650 | 73 | 153 | 0.0 | 0.0 | 0.00 | 0.08 | 0.08 | 61 | 1012.3 |
| 20260507034148 | 73 | 153 | 0.0 | 0.0 | 0.02 | 0.08 | 0.08 | 61 | 1012.2 |
| 20260507033646 | 73 | 153 | 0.0 | 0.0 | 0.02 | 0.08 | 0.08 | 61 | 1012.3 |
| 20260507033143 | 73 | 153 | 0.0 | 0.0 | 0.00 | 0.07 | 0.07 | 61 | 1012.5 |
| 20260507032640 | 73 | 153 | 0.0 | 0.0 | 0.00 | 0.07 | 0.07 | 61 | 1012.5 |
| 20260507032136 | 73 | 153 | 0.0 | 0.0 | 0.00 | 0.07 | 0.07 | 61 | 1012.5 |
| 20260507031633 | 73 | 153 | 0.0 | 0.0 | 0.00 | 0.07 | 0.07 | 61 | 1012.5 |
| 20260507031130 | 73 | 153 | 0.0 | 0.0 | 0.00 | 0.07 | 0.07 | 61 | 1012.2 |
| 20260507030626 | 73 | 153 | 0.0 | 0.0 | 0.00 | 0.07 | 0.07 | 61 | 1012.2 |
| 20260507030124 | 73 | 153 | 0.0 | 0.0 | 0.00 | 0.07 | 0.07 | 61 | 1012.2 |
| 20260507025621 | 73 | 153 | 0.0 | 0.0 | 0.00 | 0.07 | 0.07 | 61 | 1012.1 |
| 20260507025118 | 0 | 0.0 | 0.0 | 0.00 | 0.07 | 0.07 | 1012.1 | ||
| 20260507024616 | 0 | 0.0 | 0.0 | 0.00 | 0.07 | 0.07 | 1012.1 | ||
| 20260507024113 | 0 | 0.0 | 0.0 | 0.00 | 0.07 | 0.07 | 1012.0 | ||
| 20260507023608 | 0 | 0.0 | 0.0 | 0.00 | 0.07 | 0.07 | 1011.9 | ||
| 20260507023106 | 0 | 0.0 | 0.0 | 0.00 | 0.07 | 0.07 | 1011.8 | ||
| 20260507022603 | 0 | 0.0 | 0.0 | 0.00 | 0.07 | 0.07 | 1011.9 | ||
| 20260507022058 | 0 | 0.0 | 0.0 | 0.00 | 0.07 | 0.07 | 1011.9 | ||
| 20260507021555 | 0 | 0.0 | 0.0 | 0.00 | 0.07 | 0.07 | 1011.9 | ||
| 20260507021051 | 0 | 0.0 | 0.0 | 0.00 | 0.07 | 0.07 | 1011.9 | ||
| 20260507020549 | 0 | 0.0 | 0.0 | 0.00 | 0.07 | 0.07 | 1011.9 | ||
| 20260507020045 | 0 | 0.0 | 0.0 | 0.00 | 0.07 | 0.07 | 1012.1 | ||
| 20260507015544 | 0 | 0.0 | 0.0 | 0.00 | 0.07 | 0.07 | 1011.9 | ||
| 20260507015041 | 0 | 0.0 | 0.0 | 0.00 | 0.07 | 0.07 | 1011.9 | ||
| 20260507014537 | 0 | 0.0 | 0.0 | 0.00 | 0.07 | 0.07 | 1011.8 | ||
| 20260507014033 | 0 | 0.0 | 0.0 | 0.00 | 0.07 | 0.07 | 1012.1 | ||
| 20260507013530 | 0 | 0.0 | 0.0 | 0.00 | 0.07 | 0.07 | 1012.0 | ||
| 20260507013027 | 68 | 88 | 0.0 | 0.9 | 0.00 | 0.07 | 0.07 | 87 | 1012.1 |
| 20260507012524 | 68 | 88 | 0.0 | 0.9 | 0.00 | 0.07 | 0.07 | 87 | 1011.9 |
| 20260507012020 | 68 | 88 | 0.0 | 0.9 | 0.00 | 0.07 | 0.07 | 87 | 1011.9 |
| 20260507011518 | 68 | 88 | 0.0 | 0.9 | 0.00 | 0.07 | 0.07 | 87 | 1012.0 |
| 20260507011014 | 68 | 88 | 0.0 | 0.9 | 0.00 | 0.07 | 0.07 | 87 | 1012.0 |